Погода в Актабане

Россия / Курганская область     55°18′36″N   68°19′27″E
темп.,
°C
ветер,
м/с
пор.,
м/с
влажн.,
%
обл.,
%
осадки,
мм/ч
давл.,
гПа
погр.,
м
25 февраля, чт
чт2523:00−25зюз1199100 0.4 101020
02:00−21ссв41198100 0.3 1011411
05:00−20с61195100 0.4 1013596
08:00−22с61194100 0.1 1015573
11:00−23ссз6992100 0.2 1018598
14:00−23ссз6991100 0.0 1021513
17:00−24сз489495 0.0 1024245
20:00−25зсз499759 0.0 1026213
26 февраля, пт
пт2623:00−25з379878 0.1 1028163
02:00−25з3698100 0.1 1029152
05:00−28з349995 0.1 103041
08:00−29зюз3499100 0.0 103161
11:00−25зюз359798 0.1 1032226
14:00−23юз359699 0.0 1031312
17:00−24юз349697 0.0 103268
20:00−28юз34960 0.0 103247
27 февраля, сб
сб2723:00−30ююз34950 0.0 103234
02:00−31ююз34980 0.0 103237
05:00−31ю34980 0.0 103246
08:00−31ю34980 0.0 103165
11:00−26ююв46955 0.0 1030235
14:00−22юв579312 0.0 1028296
17:00−22юв59936 0.0 1027249
20:00−23юв6119631 0.0 1025233
28 февраля, вс
вс2823:00−20юв6119766 0.3 1022274
02:00−16юв71195100 0.6 1019376
05:00−14юв71294100 0.9 1017402
08:00−13юв71294100 0.3 1014408
11:00−10юв71192100 0.5 1012455
14:00−7вюв6991100 0.1 1010516
17:00−7в6995100 0.4 1008424
20:00−8всв5895100 0.6 1007286
1 марта, пн
пн123:00−9св4695100 1.2 1008213
02:00−12ссв3596100 0.3 1009105
05:00−13с339596 0.5 101172
08:00−16с239675 0.0 101320
11:00−13ссв229146 0.0 1014174
14:00−11ссв118897 0.0 1014265
17:00−10св129499 0.2 1014179
20:00−13св239693 0.1 101423